{"data":{"norad_id":55673,"intl_designator":"2023-021AX","name":"STARLINK-5463","alt_names":[],"object_type":"PAYLOAD","status":"ACTIVE","operator":null,"country":"US","launch_date":"2023-02-17","launch_site_code":"AFWTR","launch_vehicle":null,"mission":null,"orbit_class":"UNKNOWN","rcs_meters":null,"size_class":null,"mass_kg":null,"dimensions":null,"purposes":["comms"],"wikipedia_slug":null,"has_3d_model":false,"image_url":null,"decayed_at":null,"tle_current":{"epoch":"2026-09-20T22:00:03.000096Z","epoch_age_seconds":67065,"freshness":"FRESH","line1":"1 55673U 23021AX  26263.91670139  .00018079  00000+0  13961-2 0  9995","line2":"2 55673  69.9999  32.1167 0004094 267.6223 331.1141 15.01573238  5761","mean_motion":15.01573238,"eccentricity":0.0004094,"inclination_deg":69.9999,"raan_deg":32.1167,"arg_perigee_deg":267.6223,"mean_anomaly_deg":331.1141,"bstar":0.0013961,"rev_number":576,"period_min":95.899418260676,"perigee_km":559.20319110497,"apogee_km":564.88581171832,"semimajor_km":6940.1815014116,"source":"CELESTRAK","updated_at":"2026-09-21T09:00:33.310115Z"}}}